Location: Rounton
(54.4000°N, 1.3500°W)
Time: 13:56:43
(UTC+00:00)

Transit 2A Rocket - Pass Details

Date: 04 December 2021
Orbit: 584 x 918 km, 66.7° (Epoch: 21 January)

Event Time Altitude Azimuth Distance (km) Brightness Sun altitude
Rises 09:46:33 0° 250° (WSW) 3,422 8.3 8.5°
Reaches altitude 10° 09:49:06 10° 257° (WSW) 2,527 7.6 8.6°
Maximum altitude 09:54:44 43° 328° (NNW) 1,250 5.8 9.0°
Drops below altitude 10° 10:00:36 10° 40° (NE) 2,622 7.6 9.4°
Sets 10:03:17 0° 47° (NE) 3,564 8.3 9.6°
